Regional Weather Roundup
Issued by NWS Upton, NY

Current Version | Previous Version | Graphics & Text | Print | Product List | Glossary Off
Versions: 1 2 3 4 5 6 7 8 9 10 11 12 13 14 15 16 17 18 19 20 21 22 23 24 25 26 27 28 29 30 31 32 33 34 35 36 37 38 39 40 41 42 43 44 45 46 47 48 49 50

000
ASUS41 KOKX 290105
RWROKX

REGIONAL WEATHER ROUNDUP
NATIONAL WEATHER SERVICE NEW YORK NY
900 PM EDT THU AUG 28 2014

NOTE: "FAIR" INDICATES FEW OR NO CLOUDS BELOW 12,000 FEET WITH NO
SIGNIFICANT WEATHER AND/OR OBSTRUCTIONS TO VISIBILITY.

NYZ071-072-176-178-NJZ106-104-290200-
NEW YORK CITY METRO AREA


CITY           SKY/WX    TMP DP  RH WIND       PRES   REMARKS
CENTRAL PARK   CLEAR     73  48  41 VRB3G20   30.03R
LAGUARDIA APRT PTCLDY    73  52  47 NW15G28   29.98R
KENNEDY INTL   PTCLDY    76  48  37 NW17      29.99R
NEWARK/LIBERTY PTCLDY    73  49  42 NW15G24   30.00R
BRNX BOT. GARD   N/A     72  48  43 NW13      30.01R
TETERBORO      CLEAR     71  48  43 NW10G23   30.00R
$$

NYZ177-179-078>081-290200-
LONG ISLAND NEW YORK

CITY           SKY/WX    TMP DP  RH WIND       PRES   REMARKS
FARMINGDALE    CLEAR     72  52  49 N7        29.98R
ISLIP          PTCLDY    72  50  45 N13       29.96R
SHIRLEY        PTCLDY    71  51  49 N10       29.98R
WESTHAMPTON    CLEAR     71  50  47 N6        29.98R
MONTAUK POINT    N/A     72  59  63 NW9       29.96R
$$

NYZ052-065-067-290200-
HUDSON VALLEY

CITY           SKY/WX    TMP DP  RH WIND       PRES   REMARKS
WHITE PLAINS   PTCLDY    67  51  56 NW7       30.00R
NEWBURGH       NOT AVBL
MONTGOMERY     CLEAR     65  48  54 NW8       30.03R
POUGHKEEPSIE   MOCLDY    69  50  50 NW8G17    30.01R
ALBANY         MOCLDY    66  52  60 NW9       30.03R
$$

NJZ001-105-106-008-010-013-015-019>022-104-290200-
NEW JERSEY

CITY           SKY/WX    TMP DP  RH WIND       PRES   REMARKS
NEWARK/LIBERTY PTCLDY    73  49  42 NW15G24   30.00R
TETERBORO      CLEAR     71  48  43 NW10G23   30.00R
CALDWELL       CLEAR     69  48  47 NW7       30.03R
MORRISTOWN     NOT AVBL
SOMERVILLE     CLEAR     69  50  50 N7        30.01R
LINDEN         FAIR      76  50  41 N12G17    30.02R
SUSSEX         CLEAR     66  46  48 VRB7      30.05R
ANDOVER          N/A     65  47  52 N7G17     30.06R
TRENTON        CLEAR     68  51  54 N8        30.02R
MILLVILLE      CLEAR     63  55  75 W6        30.02R
ATLANTIC CITY  CLEAR     64  55  72 NW7       30.01R
WRIGHTSTOWN    PTCLDY    68  53  57 W7        30.00R
TOMS RIVER     CLEAR     68  52  56 NW3       30.01R
BELMAR         CLEAR     70  50  49 NW7       30.00R
$$

PAZ047>061-062-071-290200-
EASTERN PENNSYLVANIA

CITY           SKY/WX    TMP DP  RH WIND       PRES   REMARKS
PHILADELPHIA   CLEAR     75  52  44 NW8       30.03R
ALLENTOWN      CLEAR     65  50  58 N6        30.05R
SCRANTON       CLEAR     62  46  55 N5        30.10R
$$

CTZ002-004>006-009-010-012-RIZ004-006-007-MAZ004-011-015-290200-
SOUTHERN NEW ENGLAND
 IN CT

CITY           SKY/WX    TMP DP  RH WIND       PRES   REMARKS
BRADLEY INTL   MOCLDY    69  53  56 NW9       29.97R
HARTFORD       MOCLDY    71  52  50 NW8       29.97R
DANBURY        PTCLDY    67  52  58 N8        30.02R
WTRBRY/OXFORD  PTCLDY    64  50  59 N12G18    30.02R
BRIDGEPORT     CLEAR     71  51  49 N12       29.98R
MERIDEN        CLEAR     69  50  50 N10       29.98R
NEW HAVEN      PTCLDY    71  51  49 N7        29.98R
CHESTER        FAIR      68  54  60 NW8       29.99R
GROTON         CLEAR     67  53  61 NW7       29.95R
WILLIMANTIC    CLEAR     65  56  72 N5        29.97R

 IN RI

CITY           SKY/WX    TMP DP  RH WIND       PRES   REMARKS
PROVIDENCE     PTCLDY    70  50  49 N9        29.95R
BLOCK ISLAND   MOCLDY    70  55  60 NW8       29.95R
WESTERLY       PTCLDY    70  55  59 NW5       29.95R

 IN MA

CITY           SKY/WX    TMP DP  RH WIND       PRES   REMARKS
BOSTON         PTCLDY    71  46  40 NW13      29.93R
WORCESTER      MOCLDY    62  51  67 NW8       29.99R
WESTFIELD      MOCLDY    67  52  58 NW7       29.98R
PROVINCETOWN   CLEAR     68  55  64 NW13      29.91R
NANTUCKET      PTCLDY    68  58  70 NW5       29.90R
$$

ANZ330-335-338-340-345-350-353-355-290200-
COASTAL MARINE OBSERVATIONS


STATION/POSITION TIME  SKY/WX   TEMP    WIND        PRES    VSBY  WAVE
                                AIR SEA DIR/SP/G                  HT/PER
                 (UTC)          (F)     (DEG/KT/KT) (MB)    (MI)  (FT/S)
NY HARB ENTRANCE NOT AVBL
4S FIRE IS       NOT AVBL
23SW MTP         0100                                 N/A           6/13
HUDSON CANYON    0100            73 72  280/ 10/ 12 1014.3          6/13
EXECUTION ROCKS  0100            74 74  330/ 14/ 19   N/A
WESTERN LI SOUND 0100            74     350/ 10/ 12   N/A           1
CENTRAL LI SOUND 0000            74 73  320/ 12/ 14   N/A           2/ 3
EASTERN LI SOUND 0000            71 68  320/ 10/ 12   N/A
ROBBINS REEF     0100            73     320/ 18/ 27   N/A
$$


>>>>>>>>>>>>>>>>>>>>>>>>>>>> KEY <<<<<<<<<<<<<<<<<<<<<<<<<<<
>                                                          <
>     SKY/WX - SKY CONDITION/PRESENT WEATHER               <
>     TMP    - TEMPERATURE IN FAHRENHEIT                   <
>     DP     - DEWPOINT IN FAHRENHEIT                      <
>     RH     - RELATIVE HUMIDITY IN PERCENT                <
>     WIND   - DIRECTION AND SPEED IN MPH                  <
>     PRES   - MEAN SEA LEVEL PRESSURE IN INCHES OF HG     <
>     WCI    - WIND CHILL INDEX                            <
>     VSB    - VISIBILITY IN MILES                         <
>     HX     - HEAT INDEX                                  <
>     TC     - TEMPERATURE IN CELSIUS                      <
>     VRB    - VARIABLE WIND DIRECTION                     <
>                                                          <
>>>>>>>>>>>>>>>>>>>>>>>>>>>> KEY <<<<<<<<<<<<<<<<<<<<<<<<<<<





USA.gov is the U.S. government's official web portal to all federal, state and local government web resources and services.